Tracking 31027 objects as of 19-Jul-2025
HD Live streaming from Space Station
objects crossing your sky now

COSMOS 2251 DEB

Track COSMOS 2251 DEB now!
10-day predictions


NORAD ID: 46271
Int'l Code: 1993-036BWR
Perigee: 701.0 km
Apogee: 758.5 km
Inclination: 74.0 °
Period: 99.2 minutes
Semi major axis: 7100 km
RCS: Unknown
Launch date: June 16, 1993
Source: Commonwealth of Independent States (former USSR) (CIS)
Launch site: PLESETSK MISSILE AND SPACE COMPLEX (PKMTR)

Note: This is SATELLITE DEBRIS
Your satellite tracking list
SL-16 DEB
Track 1 satellite(s)




NASA's NSSDC Master Catalog

Two Line Element Set (TLE):
1 46271U 93036BWT 25197.71669742  .00000800  00000-0  20755-3 0  9997
2 46271  74.0472 358.3884 0040502 156.2429 204.0614 14.50925358824806
Source of the keplerian elements: AFSPC